Hourly Data Report for May 28, 2012

All times are specified in Local Standard Time (LST). Add 1 hour to adjust for Daylight Saving Time where and when it is observed.

SAULT STE MARIE A
ONTARIO

46°29'06.000" N
84°30'35.000" W
192.00 m
6057591
71260
YAM

Download Data

Hourly Data (May 2012)
Hourly Data Report for May 28, 2012
Temp Definition
°C
Dew Point Temp Definition
°C
Rel Hum Definition
%
Wind Dir Definition
10's deg

Wind Spd Definition
km/h
Visibility Definition
km
Stn Press Definition
kPa
Hmdx Definition


Wind Chill Definition


Weather Definition


TIME
00:00 Legend Double Dagger 15.6 12.8 83 10 13 10.0 98.87     LegendNANA
01:00 Legend Double Dagger 15.6 12.0 79 10 14 10.0 98.82     Mainly Clear
02:00 Legend Double Dagger 15.1 12.1 82 11 12 10.0 98.75     LegendNANA
03:00 Legend Double Dagger 14.8 12.5 86 10 13 10.0 98.73     LegendNANA
04:00 Legend Double Dagger 14.4 12.6 89 10 10 10.0 98.70     Cloudy
05:00 Legend Double Dagger 14.4 13.3 93 9 9 10.0 98.69     LegendNANA
06:00 Legend Double Dagger 14.4 13.8 96 9 13 10.0 98.63     LegendNANA
07:00 Legend Double Dagger 15.4 14.1 92 9 13 10.0 98.58     Mostly Cloudy
08:00 Legend Double Dagger 17.5 14.8 84 12 12 10.0 98.51     LegendNANA
09:00 Legend Double Dagger 18.5 15.2 81 10 11 10.0 98.48     LegendNANA
10:00 Legend Double Dagger 19.8 15.9 78 10 16 10.0 98.45     Cloudy
11:00 Legend Double Dagger 21.5 16.8 74 11 17 10.0 98.38 27   LegendNANA
12:00 Legend Double Dagger 23.3 18.5 74 9 10 10.0 98.32 30   LegendNANA
13:00 Legend Double Dagger 25.4 18.2 64 15 14 10.0 98.24 32   Mostly Cloudy
14:00 Legend Double Dagger 25.7 18.3 63 18 15 10.0 98.17 32   LegendNANA
15:00 Legend Double Dagger 24.4 19.1 72 10 11 10.0 98.13 31   LegendNANA
16:00 Legend Double Dagger 26.9 19.4 63 13 9 10.0 98.03 34   Mostly Cloudy
17:00 Legend Double Dagger 27.4 17.5 54 21 18 10.0 97.96 33   LegendNANA
18:00 Legend Double Dagger 20.8 14.1 65 31 26 10.0 98.05     LegendNANA
19:00 Legend Double Dagger 15.8 15.8 100 27 17 10.0 98.18     Rain Showers
20:00 Legend Double Dagger 14.7 14.7 100   0 10.0 98.07     Rain Showers
21:00 Legend Double Dagger 14.3 14.3 100 3 5 8.1 98.02     Thunderstorms,Rain Showers,Fog
22:00 Legend Double Dagger 13.9 13.9 100 32 12 10.0 98.05     Mainly Clear
23:00 Legend Double Dagger 14.1 14.1 100   0 6.4 98.05     Fog

Notes on Data Quality.

Legend

  • E = Estimated
  • M = Missing
  • NA = Not Available
  • ‡ = Partner data that is not subject to review by the National Climate Archives
Date modified: